Terminal Aerodrome Forecast
Issued by NWS Buffalo, NY

Home | Current Version | Previous Version | Text Only | Print | Product List | Glossary On
Versions: 1 2 3 4 5 6 7 8 9 10 11 12 13 14 15 16 17 18 19 20 21 22 23 24 25 26 27 28 29 30
000
FTUS41 KBUF 192000 AAA
TAFROC
TAF AMD
KROC 192029Z 1920/2018 30009KT P6SM OVC020
     FM200300 31005KT P6SM OVC015
     FM200900 VRB03KT P6SM OVC015
     FM201400 VRB03KT P6SM BKN020=

USA.gov is the U.S. government's official web portal to all federal, state and local government web resources and services.